Location: Street
(51.1247°N, 2.7429°W)
Time: 05:50:53
(UTC+00:00)

SR - Pass Details

Date: 27 November 2020
Orbit: 575 x 880 km, 66.7° (Epoch: 25 January)

Event Time Altitude Azimuth Distance (km) Brightness Sun altitude
Rises 01:30:44 0° 322° (NW) 3,071 - -55.1°
Reaches altitude 10° 01:33:22 10° 336° (NNW) 2,206 - -54.8°
Maximum altitude 01:37:33 25° 32° (NNE) 1,487 - -54.4°
Drops below altitude 10° 01:42:01 10° 87° (E) 2,368 - -53.9°
Sets 01:44:57 0° 100° (E) 3,347 - -53.6°
